Time,TemperatureF,DewpointF,PressureIn,WindDirection,WindDirectionDegrees,WindSpeedMPH,WindSpeedGustMPH,Humidity,HourlyPrecipIn,Conditions,Clouds,dailyrainin,SoftwareType,DateUTC
2013-06-17 00:03:00,59.3,48.8,29.54,WSW,238,4.0,4.0,68,0.00,,---,0.00,VWS V13.01,2013-06-17 07:03:00,
2013-06-17 00:04:00,57.8,49.2,29.54,SW,223,0.0,2.0,73,0.00,,---,0.00,VWS V13.01,2013-06-17 07:04:00,
2013-06-17 00:05:00,57.7,49.1,29.54,West,260,0.0,5.0,73,0.00,,---,0.00,VWS V13.01,2013-06-17 07:05:00,
2013-06-17 00:06:00,57.7,49.1,29.54,SW,226,4.0,5.0,73,0.00,,---,0.00,VWS V13.01,2013-06-17 07:06:00,
2013-06-17 00:07:00,57.7,49.1,29.54,SW,218,0.0,10.0,73,0.00,,---,0.00,VWS V13.01,2013-06-17 07:07:00,
2013-06-17 00:08:00,59.3,48.8,29.54,WSW,244,2.0,7.0,68,0.00,,---,0.00,VWS V13.01,2013-06-17 07:08:00,
2013-06-17 00:13:00,59.2,48.7,29.54,SW,215,0.0,11.0,68,0.00,,---,0.00,VWS V13.01,2013-06-17 07:13:00,
2013-06-17 00:18:00,59.0,48.9,29.54,West,268,4.0,12.0,69,0.00,,---,0.00,VWS V13.01,2013-06-17 07:18:00,
2013-06-17 00:23:00,58.9,48.8,29.54,WNW,303,1.0,12.0,69,0.00,,---,0.00,VWS V13.01,2013-06-17 07:23:00,
2013-06-17 00:28:00,58.8,49.0,29.54,WSW,248,0.0,12.0,70,0.00,,---,0.00,VWS V13.01,2013-06-17 07:28:00,
2013-06-17 00:33:00,58.6,48.9,29.54,WSW,246,5.0,12.0,70,0.00,,---,0.00,VWS V13.01,2013-06-17 07:33:00,
2013-06-17 00:38:00,58.5,48.8,29.54,West,271,2.0,12.0,70,0.00,,---,0.00,VWS V13.01,2013-06-17 07:38:00,
2013-06-17 00:43:00,58.3,49.0,29.54,SW,222,1.0,12.0,71,0.00,,---,0.00,VWS V13.01,2013-06-17 07:43:00,
2013-06-17 00:48:00,58.2,48.8,29.54,WSW,237,4.0,12.0,71,0.00,,---,0.00,VWS V13.01,2013-06-17 07:48:00,
2013-06-17 00:53:00,58.0,48.7,29.54,SW,217,1.0,12.0,71,0.00,,---,0.00,VWS V13.01,2013-06-17 07:53:00,
2013-06-17 00:58:00,57.9,48.9,29.54,SW,215,2.0,12.0,72,0.00,,---,0.00,VWS V13.01,2013-06-17 07:58:00,
2013-06-17 01:06:00,57.8,49.2,29.54,SW,225,2.0,12.0,73,0.00,,---,0.00,VWS V13.01,2013-06-17 08:06:00,
2013-06-17 01:11:00,57.7,49.1,29.54,SW,219,1.0,10.0,73,0.00,,---,0.00,VWS V13.01,2013-06-17 08:11:00,
2013-06-17 01:16:00,57.6,49.0,29.54,WSW,244,1.0,10.0,73,0.00,,---,0.00,VWS V13.01,2013-06-17 08:16:00,
2013-06-17 01:21:00,57.5,49.3,29.54,SW,223,0.0,10.0,74,0.00,,---,0.00,VWS V13.01,2013-06-17 08:21:00,
2013-06-17 01:26:00,57.4,49.2,29.54,SW,232,5.0,10.0,74,0.00,,---,0.00,VWS V13.01,2013-06-17 08:26:00,
2013-06-17 01:31:00,57.3,49.5,29.54,WSW,249,0.0,10.0,75,0.00,,---,0.00,VWS V13.01,2013-06-17 08:31:00,
2013-06-17 01:36:00,57.2,49.4,29.54,West,261,0.0,10.0,75,0.00,,---,0.00,VWS V13.01,2013-06-17 08:36:00,
2013-06-17 01:41:00,57.2,49.4,29.54,WNW,292,0.0,10.0,75,0.00,,---,0.00,VWS V13.01,2013-06-17 08:41:00,
2013-06-17 01:46:00,57.2,49.4,29.54,SW,223,1.0,10.0,75,0.00,,---,0.00,VWS V13.01,2013-06-17 08:46:00,
2013-06-17 01:51:00,57.1,49.6,29.54,West,271,0.0,10.0,76,0.00,,---,0.00,VWS V13.01,2013-06-17 08:51:00,
2013-06-17 01:56:00,57.0,49.5,29.54,SW,227,0.0,10.0,76,0.00,,---,0.00,VWS V13.01,2013-06-17 08:56:00,
2013-06-17 02:01:00,56.9,49.4,29.54,West,278,0.0,10.0,76,0.00,,---,0.00,VWS V13.01,2013-06-17 09:01:00,
2013-06-17 02:06:00,56.9,49.4,29.54,West,259,4.0,7.0,76,0.00,,---,0.00,VWS V13.01,2013-06-17 09:06:00,
2013-06-17 02:11:00,56.9,49.4,29.54,West,275,4.0,7.0,76,0.00,,---,0.00,VWS V13.01,2013-06-17 09:11:00,
2013-06-17 02:16:00,56.8,49.3,29.54,SW,224,5.0,11.0,76,0.00,,---,0.00,VWS V13.01,2013-06-17 09:16:00,
2013-06-17 02:21:00,56.8,49.3,29.54,SW,215,2.0,11.0,76,0.00,,---,0.00,VWS V13.01,2013-06-17 09:21:00,
2013-06-17 02:26:00,56.7,49.2,29.54,SW,229,3.0,11.0,76,0.00,,---,0.00,VWS V13.01,2013-06-17 09:26:00,
2013-06-17 02:31:00,56.6,49.5,29.54,SW,222,0.0,11.0,77,0.00,,---,0.00,VWS V13.01,2013-06-17 09:31:00,
2013-06-17 02:36:00,56.5,49.4,29.54,SW,227,0.0,11.0,77,0.00,,---,0.00,VWS V13.01,2013-06-17 09:36:00,
2013-06-17 02:41:00,56.4,49.3,29.54,SW,226,0.0,11.0,77,0.00,,---,0.00,VWS V13.01,2013-06-17 09:41:00,
2013-06-17 02:46:00,56.3,49.2,29.54,SW,222,0.0,11.0,77,0.00,,---,0.00,VWS V13.01,2013-06-17 09:46:00,
2013-06-17 02:51:00,56.2,49.1,31.08,SSW,200,0.0,11.0,77,0.00,,---,0.00,VWS V13.01,2013-06-17 09:51:00,
2013-06-17 02:56:00,56.2,49.1,31.08,WSW,239,0.0,11.0,77,0.00,,---,0.00,VWS V13.01,2013-06-17 09:56:00,
2013-06-17 03:01:00,56.2,49.1,31.08,West,280,2.0,11.0,77,0.00,,---,0.00,VWS V13.01,2013-06-17 10:01:00,
2013-06-17 03:06:00,56.2,49.1,31.08,WSW,253,0.0,5.0,77,0.00,,---,0.00,VWS V13.01,2013-06-17 10:06:00,
2013-06-17 03:11:00,56.2,49.1,31.08,SW,227,0.0,5.0,77,0.00,,---,0.00,VWS V13.01,2013-06-17 10:11:00,
2013-06-17 03:16:00,56.2,49.1,31.08,WSW,240,0.0,5.0,77,0.00,,---,0.00,VWS V13.01,2013-06-17 10:16:00,
2013-06-17 03:21:00,56.3,49.2,31.08,WNW,289,0.0,7.0,77,0.00,,---,0.00,VWS V13.01,2013-06-17 10:21:00,
2013-06-17 03:26:00,56.3,49.2,31.08,SSW,213,0.0,9.0,77,0.00,,---,0.00,VWS V13.01,2013-06-17 10:26:00,
2013-06-17 03:31:00,56.3,49.2,16.48,West,280,0.0,9.0,77,0.00,,---,0.00,VWS V13.01,2013-06-17 10:31:00,
2013-06-17 03:36:00,56.3,49.2,20.60,West,264,0.0,11.0,77,0.00,,---,0.00,VWS V13.01,2013-06-17 10:36:00,
2013-06-17 03:41:00,56.3,49.2,20.60,West,268,0.0,11.0,77,0.00,,---,0.00,VWS V13.01,2013-06-17 10:41:00,
2013-06-17 03:46:00,56.2,49.1,20.60,West,281,3.0,11.0,77,0.00,,---,0.00,VWS V13.01,2013-06-17 10:46:00,
2013-06-17 03:51:00,56.2,49.1,20.60,West,275,0.0,11.0,77,0.00,,---,0.00,VWS V13.01,2013-06-17 10:51:00,
2013-06-17 03:56:00,56.1,49.0,20.60,West,273,0.0,11.0,77,0.00,,---,0.00,VWS V13.01,2013-06-17 10:56:00,
2013-06-17 04:01:00,56.0,49.2,20.60,West,274,0.0,11.0,78,0.00,,---,0.00,VWS V13.01,2013-06-17 11:01:00,
2013-06-17 04:06:00,55.8,49.0,20.60,West,274,0.0,3.0,78,0.00,,---,0.00,VWS V13.01,2013-06-17 11:06:00,
2013-06-17 04:11:00,55.7,49.0,20.60,West,273,0.0,3.0,78,0.00,,---,0.00,VWS V13.01,2013-06-17 11:11:00,
2013-06-17 04:16:00,55.5,48.8,20.60,West,273,0.0,3.0,78,0.00,,---,0.00,VWS V13.01,2013-06-17 11:16:00,
2013-06-17 04:21:00,55.4,49.0,20.60,West,273,0.0,3.0,79,0.00,,---,0.00,VWS V13.01,2013-06-17 11:21:00,
2013-06-17 04:26:00,55.3,48.9,20.60,West,273,0.0,3.0,79,0.00,,---,0.00,VWS V13.01,2013-06-17 11:26:00,
2013-06-17 04:31:00,55.1,48.7,20.60,West,273,0.0,3.0,79,0.00,,---,0.00,VWS V13.01,2013-06-17 11:31:00,
2013-06-17 04:36:00,55.0,48.6,20.60,West,264,0.0,3.0,79,0.00,,---,0.00,VWS V13.01,2013-06-17 11:36:00,
2013-06-17 04:41:00,54.9,48.9,20.60,West,264,0.0,3.0,80,0.00,,---,0.00,VWS V13.01,2013-06-17 11:41:00,
2013-06-17 04:46:00,54.8,48.8,20.60,West,264,0.0,3.0,80,0.00,,---,0.00,VWS V13.01,2013-06-17 11:46:00,
2013-06-17 04:51:00,54.7,48.7,29.54,SSW,213,0.0,3.0,80,0.00,,---,0.00,VWS V13.01,2013-06-17 11:51:00,
2013-06-17 04:56:00,54.6,48.6,29.54,SSW,211,0.0,3.0,80,0.00,,---,0.00,VWS V13.01,2013-06-17 11:56:00,
2013-06-17 05:01:00,54.5,48.8,29.54,SSW,212,0.0,3.0,81,0.00,,---,0.00,VWS V13.01,2013-06-17 12:01:00,
2013-06-17 05:06:00,54.4,48.7,29.54,SSW,211,0.0,0.0,81,0.00,,---,0.00,VWS V13.01,2013-06-17 12:06:00,
2013-06-17 05:11:00,54.4,48.7,23.45,SSW,207,0.0,2.0,81,0.00,,---,0.00,VWS V13.01,2013-06-17 12:11:00,
2013-06-17 05:16:00,54.3,48.6,23.45,SSW,207,0.0,2.0,81,0.00,,---,0.00,VWS V13.01,2013-06-17 12:16:00,
2013-06-17 05:21:00,54.2,48.5,23.45,SW,214,0.0,5.0,81,0.00,,---,0.00,VWS V13.01,2013-06-17 12:21:00,
2013-06-17 05:26:00,54.1,48.7,23.45,SW,215,0.0,6.0,82,0.00,,---,0.00,VWS V13.01,2013-06-17 12:26:00,
2013-06-17 05:31:00,54.1,48.4,23.45,SW,215,0.0,6.0,81,0.00,,---,0.00,VWS V13.01,2013-06-17 12:31:00,
2013-06-17 05:36:00,54.1,48.7,23.45,SW,216,0.0,6.0,82,0.00,,---,0.00,VWS V13.01,2013-06-17 12:36:00,
2013-06-17 05:41:00,54.1,48.4,23.45,SW,217,0.0,6.0,81,0.00,,---,0.00,VWS V13.01,2013-06-17 12:41:00,
2013-06-17 05:46:00,54.0,48.6,23.45,SW,217,0.0,6.0,82,0.00,,---,0.00,VWS V13.01,2013-06-17 12:46:00,
2013-06-17 05:51:00,54.0,48.3,23.45,West,266,0.0,6.0,81,0.00,,---,0.00,VWS V13.01,2013-06-17 12:51:00,
2013-06-17 05:56:00,54.1,48.4,23.45,WSW,240,0.0,7.0,81,0.00,,---,0.00,VWS V13.01,2013-06-17 12:56:00,
2013-06-17 06:01:00,54.1,48.4,23.45,SW,223,5.0,7.0,81,0.00,,---,0.00,VWS V13.01,2013-06-17 13:01:00,
2013-06-17 06:06:00,54.2,48.5,23.45,WSW,240,0.0,3.0,81,0.00,,---,0.00,VWS V13.01,2013-06-17 13:06:00,
2013-06-17 06:11:00,54.4,48.7,23.45,WNW,282,0.0,6.0,81,0.00,,---,0.00,VWS V13.01,2013-06-17 13:11:00,
2013-06-17 06:16:00,54.4,48.4,23.45,South,191,0.0,6.0,80,0.00,,---,0.00,VWS V13.01,2013-06-17 13:16:00,
2013-06-17 06:21:00,54.5,48.5,23.45,SW,233,2.0,6.0,80,0.00,,---,0.00,VWS V13.01,2013-06-17 13:21:00,
2013-06-17 06:26:00,54.7,48.7,23.45,SW,226,0.0,6.0,80,0.00,,---,0.00,VWS V13.01,2013-06-17 13:26:00,
2013-06-17 06:31:00,55.0,49.0,23.45,SSW,213,0.0,6.0,80,0.00,,---,0.00,VWS V13.01,2013-06-17 13:31:00,
2013-06-17 06:36:00,55.4,49.0,23.45,SW,229,0.0,6.0,79,0.00,,---,0.00,VWS V13.01,2013-06-17 13:36:00,
2013-06-17 06:41:00,55.9,49.2,23.45,SW,225,1.0,6.0,78,0.00,,---,0.00,VWS V13.01,2013-06-17 13:41:00,
2013-06-17 06:46:00,56.3,49.2,23.45,WSW,246,0.0,6.0,77,0.00,,---,0.00,VWS V13.01,2013-06-17 13:46:00,
2013-06-17 06:51:00,56.5,49.4,23.45,WNW,283,2.0,6.0,77,0.00,,---,0.00,VWS V13.01,2013-06-17 13:51:00,
2013-06-17 06:56:00,56.7,49.2,23.45,West,264,0.0,8.0,76,0.00,,---,0.00,VWS V13.01,2013-06-17 13:56:00,
2013-06-17 07:01:00,56.9,49.4,23.45,SW,231,0.0,8.0,76,0.00,,---,0.00,VWS V13.01,2013-06-17 14:01:00,
2013-06-17 07:06:00,57.2,49.7,23.45,SW,230,0.0,4.0,76,0.00,,---,0.00,VWS V13.01,2013-06-17 14:06:00,
2013-06-17 07:11:00,57.6,49.8,23.45,WNW,286,0.0,5.0,75,0.00,,---,0.00,VWS V13.01,2013-06-17 14:11:00,
2013-06-17 07:16:00,57.7,49.8,23.45,SW,236,0.0,5.0,75,0.00,,---,0.00,VWS V13.01,2013-06-17 14:16:00,
2013-06-17 07:21:00,58.0,50.1,23.45,SW,229,4.0,5.0,75,0.00,,---,0.00,VWS V13.01,2013-06-17 14:21:00,
2013-06-17 07:26:00,58.2,50.0,23.45,SW,234,0.0,5.0,74,0.00,,---,0.00,VWS V13.01,2013-06-17 14:26:00,
2013-06-17 07:31:00,58.0,49.8,23.45,WSW,246,2.0,5.0,74,0.00,,---,0.00,VWS V13.01,2013-06-17 14:31:00,
2013-06-17 07:36:00,57.9,49.7,23.45,WSW,240,0.0,5.0,74,0.00,,---,0.00,VWS V13.01,2013-06-17 14:36:00,
2013-06-17 07:41:00,58.1,50.2,23.45,WSW,240,0.0,5.0,75,0.00,,---,0.00,VWS V13.01,2013-06-17 14:41:00,
2013-06-17 07:46:00,58.5,50.2,23.45,ENE,63,0.0,5.0,74,0.00,,---,0.00,VWS V13.01,2013-06-17 14:46:00,
2013-06-17 07:51:00,58.9,50.3,20.60,NNW,348,0.0,5.0,73,0.00,,---,0.00,VWS V13.01,2013-06-17 14:51:00,
2013-06-17 07:56:00,59.0,50.4,20.60,NNW,342,0.0,5.0,73,0.00,,---,0.00,VWS V13.01,2013-06-17 14:56:00,
2013-06-17 08:01:00,59.3,50.7,20.60,NNW,344,0.0,5.0,73,0.00,,---,0.00,VWS V13.01,2013-06-17 15:01:00,
2013-06-17 08:06:00,59.8,50.8,20.60,NNW,344,0.0,1.0,72,0.00,,---,0.00,VWS V13.01,2013-06-17 15:06:00,
2013-06-17 08:11:00,60.2,50.8,20.60,North,5,0.0,2.0,71,0.00,,---,0.00,VWS V13.01,2013-06-17 15:11:00,
2013-06-17 08:16:00,60.4,50.6,20.60,North,5,0.0,2.0,70,0.00,,---,0.00,VWS V13.01,2013-06-17 15:16:00,
2013-06-17 08:21:00,60.7,50.9,20.60,NW,323,0.0,3.0,70,0.00,,---,0.00,VWS V13.01,2013-06-17 15:21:00,
2013-06-17 08:26:00,61.2,51.0,20.60,NW,306,1.0,3.0,69,0.00,,---,0.00,VWS V13.01,2013-06-17 15:26:00,
2013-06-17 08:31:00,61.4,51.2,31.08,SW,229,0.0,3.0,69,0.00,,---,0.00,VWS V13.01,2013-06-17 15:31:00,
2013-06-17 08:36:00,61.8,50.7,31.08,West,276,3.0,5.0,67,0.00,,---,0.00,VWS V13.01,2013-06-17 15:36:00,
2013-06-17 08:41:00,61.9,50.8,26.12,WNW,292,0.0,6.0,67,0.00,,---,0.00,VWS V13.01,2013-06-17 15:41:00,
2013-06-17 08:46:00,62.1,51.0,26.12,WNW,286,0.0,6.0,67,0.00,,---,0.00,VWS V13.01,2013-06-17 15:46:00,
2013-06-17 08:51:00,62.6,51.1,26.12,WSW,242,1.0,6.0,66,0.00,,---,0.00,VWS V13.01,2013-06-17 15:51:00,
2013-06-17 08:56:00,63.2,51.2,26.12,NNW,339,0.0,6.0,65,0.00,,---,0.00,VWS V13.01,2013-06-17 15:56:00,
2013-06-17 09:01:00,63.9,51.5,26.12,WNW,290,4.0,10.0,64,0.00,,---,0.00,VWS V13.01,2013-06-17 16:01:00,
2013-06-17 09:06:00,64.5,51.2,26.12,NW,322,3.0,7.0,62,0.00,,---,0.00,VWS V13.01,2013-06-17 16:06:00,
2013-06-17 09:11:00,65.2,51.9,26.12,North,5,3.0,7.0,62,0.00,,---,0.00,VWS V13.01,2013-06-17 16:11:00,
2013-06-17 09:16:00,65.5,51.7,31.08,WNW,294,3.0,9.0,61,0.00,,---,0.00,VWS V13.01,2013-06-17 16:16:00,
2013-06-17 09:21:00,65.8,52.0,31.08,NNW,332,4.0,9.0,61,0.00,,---,0.00,VWS V13.01,2013-06-17 16:21:00,
2013-06-17 09:26:00,65.9,52.1,31.08,NW,309,5.0,11.0,61,0.00,,---,0.00,VWS V13.01,2013-06-17 16:26:00,
2013-06-17 09:31:00,66.1,51.8,31.08,NW,326,7.0,11.0,60,0.00,,---,0.00,VWS V13.01,2013-06-17 16:31:00,
2013-06-17 09:36:00,66.2,52.4,31.08,WNW,289,3.0,12.0,61,0.00,,---,0.00,VWS V13.01,2013-06-17 16:36:00,
2013-06-17 09:41:00,66.6,53.2,31.08,SW,222,0.0,12.0,62,0.00,,---,0.00,VWS V13.01,2013-06-17 16:41:00,
2013-06-17 09:46:00,67.6,53.7,31.08,NW,315,3.0,12.0,61,0.00,,---,0.00,VWS V13.01,2013-06-17 16:46:00,
2013-06-17 09:51:00,68.1,53.2,31.08,West,259,2.0,12.0,59,0.00,,---,0.00,VWS V13.01,2013-06-17 16:51:00,
2013-06-17 09:56:00,68.3,53.0,31.08,WNW,286,1.0,12.0,58,0.00,,---,0.00,VWS V13.01,2013-06-17 16:56:00,
2013-06-17 10:01:00,68.4,52.6,31.08,WNW,284,10.0,12.0,57,0.00,,---,0.00,VWS V13.01,2013-06-17 17:01:00,
2013-06-17 10:06:00,68.2,52.9,31.08,WNW,287,9.0,13.0,58,0.00,,---,0.00,VWS V13.01,2013-06-17 17:06:00,
2013-06-17 10:11:00,68.3,53.4,31.08,West,277,9.0,13.0,59,0.00,,---,0.00,VWS V13.01,2013-06-17 17:11:00,
2013-06-17 10:16:00,68.5,53.6,31.08,WNW,290,5.0,13.0,59,0.00,,---,0.00,VWS V13.01,2013-06-17 17:16:00,
2013-06-17 10:21:00,68.7,53.3,31.08,NW,313,2.0,13.0,58,0.00,,---,0.00,VWS V13.01,2013-06-17 17:21:00,
2013-06-17 10:26:00,68.6,53.2,31.08,WSW,253,6.0,15.0,58,0.00,,---,0.00,VWS V13.01,2013-06-17 17:26:00,
2013-06-17 10:31:00,68.4,53.5,31.08,NW,323,4.0,15.0,59,0.00,,---,0.00,VWS V13.01,2013-06-17 17:31:00,
2013-06-17 10:35:00,68.4,53.5,31.08,WNW,290,13.0,18.0,59,0.00,,---,0.00,VWS V13.01,2013-06-17 17:35:00,
2013-06-17 10:40:00,68.4,53.5,31.08,NW,314,5.0,18.0,59,0.00,,---,0.00,VWS V13.01,2013-06-17 17:40:00,
2013-06-17 10:45:00,68.4,53.5,31.08,NNW,336,8.0,18.0,59,0.00,,---,0.00,VWS V13.01,2013-06-17 17:45:00,
2013-06-17 10:50:00,68.5,53.6,31.08,WNW,291,6.0,18.0,59,0.00,,---,0.00,VWS V13.01,2013-06-17 17:50:00,
2013-06-17 10:55:00,68.6,53.7,31.08,NW,311,11.0,18.0,59,0.00,,---,0.00,VWS V13.01,2013-06-17 17:55:00,
2013-06-17 11:00:00,68.5,54.1,31.08,NNW,337,6.0,18.0,60,0.00,,---,0.00,VWS V13.01,2013-06-17 18:00:00,
2013-06-17 11:05:00,68.8,54.4,31.08,North,355,2.0,8.0,60,0.00,,---,0.00,VWS V13.01,2013-06-17 18:05:00,
2013-06-17 11:10:00,69.0,54.1,31.08,NNW,330,7.0,14.0,59,0.00,,---,0.00,VWS V13.01,2013-06-17 18:10:00,
2013-06-17 11:15:00,68.9,54.0,31.08,WNW,286,3.0,14.0,59,0.00,,---,0.00,VWS V13.01,2013-06-17 18:15:00,
2013-06-17 11:20:00,69.0,54.1,31.08,NW,309,4.0,19.0,59,0.00,,---,0.00,VWS V13.01,2013-06-17 18:20:00,
2013-06-17 11:25:00,68.7,53.8,31.08,West,276,6.0,19.0,59,0.00,,---,0.00,VWS V13.01,2013-06-17 18:25:00,
2013-06-17 11:30:00,69.0,54.5,31.08,NW,317,2.0,19.0,60,0.00,,---,0.00,VWS V13.01,2013-06-17 18:30:00,
2013-06-17 11:35:00,69.1,54.7,31.08,NE,44,0.0,19.0,60,0.00,,---,0.00,VWS V13.01,2013-06-17 18:35:00,
2013-06-17 11:40:00,69.5,54.6,31.08,West,261,6.0,19.0,59,0.00,,---,0.00,VWS V13.01,2013-06-17 18:40:00,
2013-06-17 11:45:00,69.7,54.8,31.08,WNW,296,13.0,19.0,59,0.00,,---,0.00,VWS V13.01,2013-06-17 18:45:00,
2013-06-17 11:50:00,69.4,54.9,31.08,West,276,3.0,19.0,60,0.00,,---,0.00,VWS V13.01,2013-06-17 18:50:00,
2013-06-17 11:55:00,69.5,55.5,31.08,NW,315,0.0,19.0,61,0.00,,---,0.00,VWS V13.01,2013-06-17 18:55:00,
2013-06-17 12:00:00,69.8,55.3,29.54,West,259,10.0,19.0,60,0.00,,---,0.00,VWS V13.01,2013-06-17 19:00:00,
2013-06-17 12:05:00,69.4,55.4,29.54,West,275,14.0,15.0,61,0.00,,---,0.00,VWS V13.01,2013-06-17 19:05:00,
2013-06-17 12:10:00,69.3,55.3,29.54,NW,317,3.0,15.0,61,0.00,,---,0.00,VWS V13.01,2013-06-17 19:10:00,
2013-06-17 12:15:00,69.0,55.5,29.54,WNW,288,9.0,17.0,62,0.00,,---,0.00,VWS V13.01,2013-06-17 19:15:00,
2013-06-17 12:20:00,69.5,55.5,29.54,WNW,292,5.0,17.0,61,0.00,,---,0.00,VWS V13.01,2013-06-17 19:20:00,
2013-06-17 12:25:00,70.2,55.7,29.54,West,279,8.0,17.0,60,0.00,,---,0.00,VWS V13.01,2013-06-17 19:25:00,
2013-06-17 12:30:00,70.2,55.2,29.54,North,10,4.0,17.0,59,0.00,,---,0.00,VWS V13.01,2013-06-17 19:30:00,
2013-06-17 12:35:00,69.7,55.2,29.54,WNW,294,5.0,17.0,60,0.00,,---,0.00,VWS V13.01,2013-06-17 19:35:00,
2013-06-17 12:40:00,69.8,55.3,29.54,NW,317,5.0,20.0,60,0.00,,---,0.00,VWS V13.01,2013-06-17 19:40:00,
2013-06-17 12:45:00,69.7,55.2,29.54,NW,326,2.0,20.0,60,0.00,,---,0.00,VWS V13.01,2013-06-17 19:45:00,
2013-06-17 12:50:00,69.5,55.5,29.54,WNW,291,12.0,21.0,61,0.00,,---,0.00,VWS V13.01,2013-06-17 19:50:00,
2013-06-17 12:55:00,69.7,55.2,29.54,NNW,340,14.0,21.0,60,0.00,,---,0.00,VWS V13.01,2013-06-17 19:55:00,
2013-06-17 13:00:00,69.6,55.1,29.54,WNW,298,6.0,21.0,60,0.00,,---,0.00,VWS V13.01,2013-06-17 20:00:00,
2013-06-17 13:05:00,69.6,55.1,29.54,NW,311,9.0,15.0,60,0.00,,---,0.00,VWS V13.01,2013-06-17 20:05:00,
2013-06-17 13:10:00,69.5,55.5,29.54,WNW,293,15.0,19.0,61,0.00,,---,0.00,VWS V13.01,2013-06-17 20:10:00,
2013-06-17 13:15:00,69.7,55.7,29.54,NW,306,9.0,19.0,61,0.00,,---,0.00,VWS V13.01,2013-06-17 20:15:00,
2013-06-17 13:20:00,70.3,55.8,29.54,NNW,334,5.0,19.0,60,0.00,,---,0.00,VWS V13.01,2013-06-17 20:20:00,
2013-06-17 13:25:00,70.4,55.4,29.54,NW,306,3.0,19.0,59,0.00,,---,0.00,VWS V13.01,2013-06-17 20:25:00,
2013-06-17 13:30:00,70.5,56.0,31.08,NW,315,12.0,19.0,60,0.00,,---,0.00,VWS V13.01,2013-06-17 20:30:00,
2013-06-17 13:35:00,70.4,55.4,28.81,NNW,338,10.0,19.0,59,0.00,,---,0.00,VWS V13.01,2013-06-17 20:35:00,
2013-06-17 13:40:00,70.6,56.1,28.81,NW,318,5.0,19.0,60,0.00,,---,0.00,VWS V13.01,2013-06-17 20:40:00,
2013-06-17 13:45:00,71.2,56.2,28.81,NW,319,6.0,19.0,59,0.00,,---,0.00,VWS V13.01,2013-06-17 20:45:00,
2013-06-17 13:50:00,71.3,56.2,28.81,NW,313,4.0,19.0,59,0.00,,---,0.00,VWS V13.01,2013-06-17 20:50:00,
2013-06-17 13:55:00,71.4,56.3,28.81,SSE,155,0.0,19.0,59,0.00,,---,0.00,VWS V13.01,2013-06-17 20:55:00,
2013-06-17 14:00:00,71.2,56.2,28.81,WNW,298,1.0,19.0,59,0.00,,---,0.00,VWS V13.01,2013-06-17 21:00:00,
2013-06-17 14:05:00,71.4,55.9,28.81,WNW,285,10.0,13.0,58,0.00,,---,0.00,VWS V13.01,2013-06-17 21:05:00,
2013-06-17 14:10:00,70.9,55.4,28.81,North,11,10.0,15.0,58,0.00,,---,0.00,VWS V13.01,2013-06-17 21:10:00,
2013-06-17 14:15:00,70.8,55.8,28.81,WSW,256,7.0,15.0,59,0.00,,---,0.00,VWS V13.01,2013-06-17 21:15:00,
2013-06-17 14:20:00,70.6,55.6,28.81,North,351,4.0,16.0,59,0.00,,---,0.00,VWS V13.01,2013-06-17 21:20:00,
2013-06-17 14:25:00,70.6,56.1,19.50,West,279,11.0,16.0,60,0.00,,---,0.00,VWS V13.01,2013-06-17 21:25:00,
2013-06-17 14:30:00,70.2,55.7,17.45,West,266,3.0,16.0,60,0.00,,---,0.00,VWS V13.01,2013-06-17 21:30:00,
2013-06-17 14:35:00,70.8,56.2,17.45,NW,306,5.0,16.0,60,0.00,,---,0.00,VWS V13.01,2013-06-17 21:35:00,
2013-06-17 14:40:00,70.8,55.8,17.45,North,349,1.0,16.0,59,0.00,,---,0.00,VWS V13.01,2013-06-17 21:40:00,
2013-06-17 14:45:00,71.1,56.1,17.45,NNE,14,4.0,16.0,59,0.00,,---,0.00,VWS V13.01,2013-06-17 21:45:00,
2013-06-17 14:50:00,70.7,55.7,19.57,North,355,9.0,16.0,59,0.00,,---,0.00,VWS V13.01,2013-06-17 21:50:00,
2013-06-17 14:55:00,70.7,55.7,19.57,WNW,300,5.0,16.0,59,0.00,,---,0.00,VWS V13.01,2013-06-17 21:55:00,
2013-06-17 15:00:00,70.4,55.4,17.45,WNW,294,8.0,16.0,59,0.00,,---,0.00,VWS V13.01,2013-06-17 22:00:00,
2013-06-17 15:05:00,70.2,55.2,17.45,WNW,303,6.0,16.0,59,0.00,,---,0.00,VWS V13.01,2013-06-17 22:05:00,
2013-06-17 15:10:00,69.9,55.4,17.45,North,5,8.0,16.0,60,0.00,,---,0.00,VWS V13.01,2013-06-17 22:10:00,
2013-06-17 15:15:00,69.6,55.6,17.45,NNW,347,1.0,22.0,61,0.00,,---,0.00,VWS V13.01,2013-06-17 22:15:00,
2013-06-17 15:20:00,69.9,55.8,17.45,NNW,337,4.0,22.0,61,0.00,,---,0.00,VWS V13.01,2013-06-17 22:20:00,
2013-06-17 15:25:00,70.1,55.6,17.45,WNW,299,7.0,22.0,60,0.00,,---,0.00,VWS V13.01,2013-06-17 22:25:00,
2013-06-17 15:30:00,70.1,55.6,17.45,NNW,332,3.0,22.0,60,0.00,,---,0.00,VWS V13.01,2013-06-17 22:30:00,
2013-06-17 15:35:00,70.2,55.2,17.45,NNW,337,4.0,22.0,59,0.00,,---,0.00,VWS V13.01,2013-06-17 22:35:00,
2013-06-17 15:40:00,69.9,55.4,17.45,NE,55,6.0,22.0,60,0.00,,---,0.00,VWS V13.01,2013-06-17 22:40:00,
2013-06-17 15:45:00,69.5,55.0,17.45,NNW,341,1.0,22.0,60,0.00,,---,0.00,VWS V13.01,2013-06-17 22:45:00,
2013-06-17 15:50:00,69.5,55.5,17.45,WNW,302,3.0,22.0,61,0.00,,---,0.00,VWS V13.01,2013-06-17 22:50:00,
2013-06-17 15:55:00,70.1,55.6,17.45,West,267,10.0,22.0,60,0.00,,---,0.00,VWS V13.01,2013-06-17 22:55:00,
2013-06-17 16:00:00,69.9,55.4,17.45,NNW,329,9.0,22.0,60,0.00,,---,0.00,VWS V13.01,2013-06-17 23:00:00,
2013-06-17 16:05:00,70.1,55.6,17.45,NW,318,5.0,13.0,60,0.00,,---,0.00,VWS V13.01,2013-06-17 23:05:00,
2013-06-17 16:10:00,70.2,55.7,17.45,SE,129,2.0,13.0,60,0.00,,---,0.00,VWS V13.01,2013-06-17 23:10:00,
2013-06-17 16:15:00,70.3,55.8,17.45,North,355,4.0,13.0,60,0.00,,---,0.00,VWS V13.01,2013-06-17 23:15:00,
2013-06-17 16:20:00,70.1,55.6,17.45,West,279,9.0,17.0,60,0.00,,---,0.00,VWS V13.01,2013-06-17 23:20:00,
2013-06-17 16:25:00,70.1,55.6,17.45,NNE,32,0.0,17.0,60,0.00,,---,0.00,VWS V13.01,2013-06-17 23:25:00,
2013-06-17 16:30:00,70.1,55.6,17.45,West,281,5.0,17.0,60,0.00,,---,0.00,VWS V13.01,2013-06-17 23:30:00,
2013-06-17 16:35:00,70.2,55.7,17.45,West,281,5.0,17.0,60,0.00,,---,0.00,VWS V13.01,2013-06-17 23:35:00,
2013-06-17 16:40:00,69.8,55.8,17.45,NW,321,5.0,17.0,61,0.00,,---,0.00,VWS V13.01,2013-06-17 23:40:00,
2013-06-17 16:45:00,69.8,55.8,17.45,ENE,59,6.0,17.0,61,0.00,,---,0.00,VWS V13.01,2013-06-17 23:45:00,
2013-06-17 16:50:00,69.5,55.9,17.45,North,355,3.0,17.0,62,0.00,,---,0.00,VWS V13.01,2013-06-17 23:50:00,
2013-06-17 16:55:00,69.8,56.2,17.45,West,265,8.0,17.0,62,0.00,,---,0.00,VWS V13.01,2013-06-17 23:55:00,
2013-06-17 17:00:00,69.7,56.1,17.45,NW,307,7.0,17.0,62,0.00,,---,0.00,VWS V13.01,2013-06-18 00:00:00,
2013-06-17 17:05:00,70.0,56.0,17.45,WNW,294,6.0,17.0,61,0.00,,---,0.00,VWS V13.01,2013-06-18 00:05:00,
2013-06-17 17:10:00,70.5,56.4,17.45,NNW,342,0.0,17.0,61,0.00,,---,0.00,VWS V13.01,2013-06-18 00:10:00,
2013-06-17 17:15:00,70.6,56.1,31.08,NW,321,11.0,17.0,60,0.00,,---,0.00,VWS V13.01,2013-06-18 00:15:00,
2013-06-17 17:20:00,69.9,55.8,31.08,NNW,348,0.0,17.0,61,0.00,,---,0.00,VWS V13.01,2013-06-18 00:20:00,
2013-06-17 17:25:00,69.8,56.2,31.08,NW,319,2.0,17.0,62,0.00,,---,0.00,VWS V13.01,2013-06-18 00:25:00,
2013-06-17 17:30:00,69.9,55.8,31.08,WNW,302,2.0,17.0,61,0.00,,---,0.00,VWS V13.01,2013-06-18 00:30:00,
2013-06-17 17:35:00,70.1,56.0,31.08,West,279,4.0,17.0,61,0.00,,---,0.00,VWS V13.01,2013-06-18 00:35:00,
2013-06-17 17:40:00,69.5,55.9,31.08,NW,307,2.0,17.0,62,0.00,,---,0.00,VWS V13.01,2013-06-18 00:40:00,
2013-06-17 17:45:00,69.2,55.6,31.08,NNW,333,11.0,20.0,62,0.00,,---,0.00,VWS V13.01,2013-06-18 00:45:00,
2013-06-17 17:50:00,68.1,55.5,31.08,NW,309,0.0,20.0,64,0.00,,---,0.00,VWS V13.01,2013-06-18 00:50:00,
2013-06-17 17:55:00,68.0,55.4,31.08,West,274,9.0,20.0,64,0.00,,---,0.00,VWS V13.01,2013-06-18 00:55:00,
2013-06-17 18:00:00,67.4,55.7,31.08,WNW,300,3.0,20.0,66,0.00,,---,0.00,VWS V13.01,2013-06-18 01:00:00,
2013-06-17 18:05:00,68.3,55.7,31.08,WNW,296,2.0,9.0,64,0.00,,---,0.00,VWS V13.01,2013-06-18 01:05:00,
2013-06-17 18:10:00,68.3,55.7,31.08,NW,317,3.0,11.0,64,0.00,,---,0.00,VWS V13.01,2013-06-18 01:10:00,
2013-06-17 18:15:00,68.0,55.4,31.08,West,260,4.0,15.0,64,0.00,,---,0.00,VWS V13.01,2013-06-18 01:15:00,
2013-06-17 18:20:00,67.6,55.4,31.08,West,273,5.0,15.0,65,0.00,,---,0.00,VWS V13.01,2013-06-18 01:20:00,
2013-06-17 18:25:00,67.6,55.4,31.08,NW,319,2.0,15.0,65,0.00,,---,0.00,VWS V13.01,2013-06-18 01:25:00,
2013-06-17 18:30:00,67.4,55.2,31.08,WNW,302,2.0,15.0,65,0.00,,---,0.00,VWS V13.01,2013-06-18 01:30:00,
2013-06-17 18:35:00,67.1,55.4,31.08,NW,309,5.0,15.0,66,0.00,,---,0.00,VWS V13.01,2013-06-18 01:35:00,
2013-06-17 18:40:00,66.6,54.9,31.08,WNW,288,8.0,15.0,66,0.00,,---,0.00,VWS V13.01,2013-06-18 01:40:00,
2013-06-17 18:45:00,66.1,54.8,31.08,SW,214,1.0,15.0,67,0.00,,---,0.00,VWS V13.01,2013-06-18 01:45:00,
2013-06-17 18:50:00,65.8,55.0,31.08,West,261,3.0,15.0,68,0.00,,---,0.00,VWS V13.01,2013-06-18 01:50:00,
2013-06-17 18:55:00,65.9,55.0,31.08,West,268,3.0,15.0,68,0.00,,---,0.00,VWS V13.01,2013-06-18 01:55:00,
2013-06-17 19:00:00,64.9,54.5,31.08,West,268,2.0,15.0,69,0.00,,---,0.00,VWS V13.01,2013-06-18 02:00:00,
2013-06-17 19:05:00,64.7,54.7,31.08,WNW,296,0.0,3.0,70,0.00,,---,0.00,VWS V13.01,2013-06-18 02:05:00,
2013-06-17 19:10:00,64.7,54.7,31.08,WSW,250,3.0,9.0,70,0.00,,---,0.00,VWS V13.01,2013-06-18 02:10:00,
2013-06-17 19:15:00,64.0,54.4,31.08,SW,229,5.0,16.0,71,0.00,,---,0.00,VWS V13.01,2013-06-18 02:15:00,
2013-06-17 19:20:00,63.6,54.4,31.08,WSW,238,5.0,16.0,72,0.00,,---,0.00,VWS V13.01,2013-06-18 02:20:00,
2013-06-17 19:25:00,63.3,54.1,31.08,SW,235,3.0,16.0,72,0.00,,---,0.00,VWS V13.01,2013-06-18 02:25:00,
2013-06-17 19:30:00,62.9,54.1,31.08,SW,217,0.0,16.0,73,0.00,,---,0.00,VWS V13.01,2013-06-18 02:30:00,
2013-06-17 19:35:00,62.4,54.0,31.08,SSW,213,4.0,16.0,74,0.00,,---,0.00,VWS V13.01,2013-06-18 02:35:00,
2013-06-17 19:40:00,62.3,53.9,31.08,NW,306,10.0,17.0,74,0.00,,---,0.00,VWS V13.01,2013-06-18 02:40:00,
2013-06-17 19:45:00,61.9,53.9,31.08,WNW,282,11.0,17.0,75,0.00,,---,0.00,VWS V13.01,2013-06-18 02:45:00,
2013-06-17 19:50:00,61.6,53.6,31.08,WNW,292,1.0,17.0,75,0.00,,---,0.00,VWS V13.01,2013-06-18 02:50:00,
2013-06-17 19:55:00,61.3,53.7,31.08,SW,229,4.0,17.0,76,0.00,,---,0.00,VWS V13.01,2013-06-18 02:55:00,
2013-06-17 19:58:00,60.1,53.6,31.08,WSW,258,0.0,16.0,79,0.00,,---,0.00,VWS V13.01,2013-06-18 02:58:00,
2013-06-17 19:59:00,60.1,53.6,31.08,SW,223,5.0,16.0,79,0.00,,---,0.00,VWS V13.01,2013-06-18 02:59:00,
2013-06-17 20:00:00,61.1,53.5,31.08,WSW,248,9.0,17.0,76,0.00,,---,0.00,VWS V13.01,2013-06-18 03:00:00,
2013-06-17 20:01:00,60.0,53.1,31.08,West,264,6.0,9.0,78,0.00,,---,0.00,VWS V13.01,2013-06-18 03:01:00,
2013-06-17 20:02:00,60.0,53.1,31.08,West,271,11.0,11.0,78,0.00,,---,0.00,VWS V13.01,2013-06-18 03:02:00,
2013-06-17 20:05:00,60.8,53.5,31.08,SW,217,5.0,15.0,77,0.00,,---,0.00,VWS V13.01,2013-06-18 03:05:00,
2013-06-17 20:10:00,60.6,53.4,31.08,NW,321,0.0,15.0,77,0.00,,---,0.00,VWS V13.01,2013-06-18 03:10:00,
2013-06-17 20:15:00,60.5,53.6,31.08,WSW,252,6.0,15.0,78,0.00,,---,0.00,VWS V13.01,2013-06-18 03:15:00,
2013-06-17 20:20:00,60.4,53.5,31.08,SSW,207,5.0,16.0,78,0.00,,---,0.00,VWS V13.01,2013-06-18 03:20:00,
2013-06-17 20:25:00,60.3,53.4,31.08,West,277,6.0,16.0,78,0.00,,---,0.00,VWS V13.01,2013-06-18 03:25:00,
2013-06-17 20:30:00,60.4,53.5,31.08,WSW,240,4.0,16.0,78,0.00,,---,0.00,VWS V13.01,2013-06-18 03:30:00,
2013-06-17 20:35:00,60.4,53.5,31.08,SW,235,5.0,16.0,78,0.00,,---,0.00,VWS V13.01,2013-06-18 03:35:00,
2013-06-17 20:40:00,60.3,53.4,31.08,West,261,5.0,16.0,78,0.00,,---,0.00,VWS V13.01,2013-06-18 03:40:00,
2013-06-17 20:45:00,60.2,53.3,31.08,WSW,238,3.0,16.0,78,0.00,,---,0.00,VWS V13.01,2013-06-18 03:45:00,
2013-06-17 20:50:00,60.2,53.3,31.08,WNW,285,3.0,16.0,78,0.00,,---,0.00,VWS V13.01,2013-06-18 03:50:00,
2013-06-17 20:55:00,60.2,53.3,31.08,West,265,1.0,16.0,78,0.00,,---,0.00,VWS V13.01,2013-06-18 03:55:00,
2013-06-17 21:00:00,60.1,53.2,31.08,SSW,197,2.0,16.0,78,0.00,,---,0.00,VWS V13.01,2013-06-18 04:00:00,
2013-06-17 21:03:00,60.0,53.5,31.08,WNW,284,5.0,5.0,79,0.00,,---,0.00,VWS V13.01,2013-06-18 04:03:00,
2013-06-17 21:08:00,59.9,53.4,31.08,SW,227,0.0,12.0,79,0.00,,---,0.00,VWS V13.01,2013-06-18 04:08:00,
2013-06-17 21:13:00,59.9,53.4,31.08,SSW,207,6.0,12.0,79,0.00,,---,0.00,VWS V13.01,2013-06-18 04:13:00,
2013-06-17 21:18:00,59.8,53.3,31.08,WSW,254,1.0,12.0,79,0.00,,---,0.00,VWS V13.01,2013-06-18 04:18:00,
2013-06-17 21:23:00,59.6,53.1,31.08,West,272,3.0,15.0,79,0.00,,---,0.00,VWS V13.01,2013-06-18 04:23:00,
2013-06-17 21:28:00,59.5,53.0,31.08,WNW,290,6.0,15.0,79,0.00,,---,0.00,VWS V13.01,2013-06-18 04:28:00,
2013-06-17 21:33:00,59.3,53.1,31.08,SW,230,3.0,15.0,80,0.00,,---,0.00,VWS V13.01,2013-06-18 04:33:00,
2013-06-17 21:38:00,59.1,52.9,31.08,SSW,209,0.0,15.0,80,0.00,,---,0.00,VWS V13.01,2013-06-18 04:38:00,
2013-06-17 21:43:00,59.1,52.9,31.08,SW,227,6.0,16.0,80,0.00,,---,0.00,VWS V13.01,2013-06-18 04:43:00,
2013-06-17 21:48:00,59.1,52.9,31.08,NW,311,5.0,16.0,80,0.00,,---,0.00,VWS V13.01,2013-06-18 04:48:00,
2013-06-17 21:53:00,59.0,52.8,31.08,SSW,211,7.0,20.0,80,0.00,,---,0.00,VWS V13.01,2013-06-18 04:53:00,
2013-06-17 21:58:00,59.0,52.8,31.08,SW,232,6.0,20.0,80,0.00,,---,0.00,VWS V13.01,2013-06-18 04:58:00,
2013-06-17 22:03:00,58.9,52.8,31.08,West,275,12.0,13.0,80,0.00,,---,0.00,VWS V13.01,2013-06-18 05:03:00,
2013-06-17 22:08:00,58.8,53.0,31.08,West,267,4.0,13.0,81,0.00,,---,0.00,VWS V13.01,2013-06-18 05:08:00,
2013-06-17 22:13:00,58.7,52.9,31.08,SW,226,4.0,13.0,81,0.00,,---,0.00,VWS V13.01,2013-06-18 05:13:00,
2013-06-17 22:18:00,58.7,52.9,31.08,WSW,256,3.0,13.0,81,0.00,,---,0.00,VWS V13.01,2013-06-18 05:18:00,
2013-06-17 22:23:00,58.6,52.8,31.08,SW,225,1.0,13.0,81,0.00,,---,0.00,VWS V13.01,2013-06-18 05:23:00,
2013-06-17 22:28:00,58.6,52.8,31.08,WNW,303,5.0,13.0,81,0.00,,---,0.00,VWS V13.01,2013-06-18 05:28:00,
2013-06-17 22:33:00,58.5,52.7,28.81,West,269,3.0,13.0,81,0.00,,---,0.00,VWS V13.01,2013-06-18 05:33:00,
2013-06-17 22:38:00,58.4,52.6,28.81,West,279,0.0,13.0,81,0.00,,---,0.00,VWS V13.01,2013-06-18 05:38:00,
2013-06-17 22:43:00,58.4,52.6,31.08,WSW,244,0.0,13.0,81,0.00,,---,0.00,VWS V13.01,2013-06-18 05:43:00,
2013-06-17 22:48:00,58.2,52.7,31.08,West,281,0.0,13.0,82,0.00,,---,0.00,VWS V13.01,2013-06-18 05:48:00,
2013-06-17 22:53:00,58.1,52.6,31.08,SW,235,1.0,13.0,82,0.00,,---,0.00,VWS V13.01,2013-06-18 05:53:00,
2013-06-17 22:58:00,58.1,52.6,31.08,WNW,293,2.0,13.0,82,0.00,,---,0.00,VWS V13.01,2013-06-18 05:58:00,
2013-06-17 23:03:00,58.0,52.5,31.08,West,268,0.0,2.0,82,0.00,,---,0.00,VWS V13.01,2013-06-18 06:03:00,
2013-06-17 23:08:00,57.9,52.8,31.08,SW,229,0.0,6.0,83,0.00,,---,0.00,VWS V13.01,2013-06-18 06:08:00,
2013-06-17 23:13:00,57.9,52.8,31.08,SW,223,0.0,6.0,83,0.00,,---,0.00,VWS V13.01,2013-06-18 06:13:00,
2013-06-17 23:18:00,57.9,52.5,31.08,WNW,290,6.0,10.0,82,0.00,,---,0.00,VWS V13.01,2013-06-18 06:18:00,
2013-06-17 23:23:00,57.8,52.7,31.08,SSW,211,6.0,10.0,83,0.00,,---,0.00,VWS V13.01,2013-06-18 06:23:00,
2013-06-17 23:28:00,57.8,52.7,31.08,SW,228,1.0,10.0,83,0.00,,---,0.00,VWS V13.01,2013-06-18 06:28:00,
2013-06-17 23:33:00,57.8,52.7,31.08,SSW,213,3.0,10.0,83,0.00,,---,0.00,VWS V13.01,2013-06-18 06:33:00,
2013-06-17 23:38:00,57.7,52.6,31.08,WNW,291,0.0,10.0,83,0.00,,---,0.00,VWS V13.01,2013-06-18 06:38:00,
2013-06-17 23:43:00,57.6,52.5,31.08,SW,228,3.0,10.0,83,0.00,,---,0.00,VWS V13.01,2013-06-18 06:43:00,
2013-06-17 23:48:00,57.5,52.4,31.08,West,280,0.0,10.0,83,0.00,,---,0.00,VWS V13.01,2013-06-18 06:48:00,
2013-06-17 23:53:00,57.3,52.5,31.08,SW,235,2.0,10.0,84,0.00,,---,0.00,VWS V13.01,2013-06-18 06:53:00,
2013-06-17 23:58:00,57.2,52.4,31.08,SW,236,0.0,10.0,84,0.00,,---,0.00,VWS V13.01,2013-06-18 06:58:00,